Home   Weather   Tehran   Past weeks
Flag for Iran

Past Weather in Tehran, Iran — Yesterday and Last 2 Weeks

Now
55 °F

Scattered clouds.


Feels Like: 53 °F
Forecast: 53 / 46 °F
Wind: 9 mph from West

Location: Tehran-Mehrabad

Current Time: Mar 19, 2019 at 6:43:51 pm

Latest Report: Mar 19, 2019 at 6:30 pm


Visibility: N/A

Pressure: 29.95 "Hg (26.02 "Hg at 1179m altitude)

Humidity: 28%

Dew Point: 23 °F

Location of TehranLocation

Past Weather in Tehran — Graph

°F

Tehran Temperature Yesterday

Maximum temperature yesterday: 59 °F (at 4:00 pm)
Minimum temperature yesterday: 41 °F (at 2:30 am)
Average temperature yesterday: 48 °F

High & Low Weather Summary for the Past Weeks

 TemperatureHumidityPressure
High66 °F (Mar 13, 3:00 pm)93% (Mar 10, 12:00 am)30.21 "Hg (Mar 10, 12:00 am)
Low36 °F (Mar 19, 5:30 am)11% (Mar 12, 5:30 pm)29.59 "Hg (Mar 17, 11:30 pm)
Average51 °F40%29.96 "Hg
* Reported Mar 4 5:30 pm — Mar 19 5:30 pm, Tehran. Weather by CustomWeather, © 2019

Note: Actual official high and low records may vary slightly from our data, if they occured in-between our weather recording intervals... More about our weather records

Advertising

Tehran Weather History for the Previous 24 Hours

Scroll right to see more
 ConditionsComfort  
Time TempWeatherWind HumidityBarometerVisibility
5:30 pm
Tue, Mar 19
55 °FPassing clouds.14 mph28%29.95 "HgN/A
5:00 pm57 °FPassing clouds.12 mph27%29.95 "HgN/A
4:30 pm57 °FPassing clouds.14 mph27%29.95 "HgN/A
4:00 pm57 °FPassing clouds.9 mph25%29.95 "HgN/A
3:30 pm59 °FPassing clouds.9 mph23%29.95 "HgN/A
3:00 pm57 °FPassing clouds.7 mph23%29.95 "HgN/A
2:30 pm57 °FScattered clouds.9 mph27%29.95 "HgN/A
2:00 pm55 °FScattered clouds.5 mph28%29.98 "HgN/A
1:30 pm55 °FScattered clouds.7 mph26%29.98 "HgN/A
1:00 pm55 °FScattered clouds.12 mph28%29.98 "HgN/A
12:30 pm54 °FScattered clouds.9 mph30%30.01 "HgN/A
12:00 pm54 °FPassing clouds.7 mph30%30.01 "HgN/A
11:30 am52 °FPassing clouds.9 mph30%30.01 "HgN/A
11:00 am52 °FPassing clouds.5 mph30%30.01 "HgN/A
10:30 am50 °FPassing clouds.7 mph32%30.01 "HgN/A
10:00 am50 °FPassing clouds.7 mph35%30.01 "HgN/A
9:30 am48 °FPassing clouds.12 mph43%30.01 "HgN/A
9:00 am46 °FSunny.9 mph57%30.01 "Hg10 mi
8:30 am45 °FSunny.5 mph61%29.98 "Hg10 mi
8:00 am43 °FSunny.5 mph66%29.98 "Hg10 mi
7:30 am39 °FSunny.7 mph75%29.98 "Hg10 mi
7:00 am36 °FSunny.7 mph81%29.98 "Hg10 mi
6:30 am36 °FClear.5 mph81%29.98 "Hg10 mi
6:00 am36 °FClear.7 mph81%29.95 "Hg10 mi
5:30 am36 °FClear.7 mph81%29.95 "Hg10 mi
5:00 am37 °FClear.7 mph75%29.95 "Hg10 mi
4:30 am37 °FClear.9 mph75%29.95 "Hg10 mi
4:00 am37 °FClear.9 mph75%29.92 "Hg10 mi
3:30 am37 °FClear.7 mph75%29.95 "Hg10 mi
3:00 am37 °FClear.7 mph75%29.95 "Hg10 mi
2:30 am37 °FClear.7 mph81%29.92 "Hg10 mi
2:00 am37 °FClear.9 mph75%29.92 "Hg10 mi
1:30 am39 °FClear.9 mph70%29.92 "Hg10 mi
1:00 am39 °FClear.9 mph75%29.92 "Hg10 mi
12:30 am39 °FClear.7 mph75%29.92 "Hg10 mi
12:00 am41 °FClear.9 mph70%29.92 "Hg10 mi
11:30 pm
Mon, Mar 18
41 °FClear.9 mph70%29.92 "Hg10 mi
11:00 pm43 °FClear.18 mph66%29.92 "Hg10 mi
10:30 pm43 °FClear.12 mph66%29.92 "Hg10 mi
10:00 pm45 °FClear.9 mph61%29.92 "Hg10 mi
9:30 pm46 °FClear.12 mph57%29.89 "Hg10 mi
9:00 pm48 °FPassing clouds.16 mph54%29.89 "HgN/A
8:30 pm50 °FPassing clouds.12 mph37%29.89 "HgN/A
8:00 pm50 °FPassing clouds.14 mph40%29.86 "HgN/A
7:30 pm52 °FPassing clouds.21 mph38%29.86 "HgN/A
7:00 pm52 °FPassing clouds.21 mph38%29.86 "HgN/A
6:30 pm52 °FPassing clouds.21 mph38%29.83 "HgN/A
6:00 pm54 °FPassing clouds.18 mph38%29.83 "HgN/A
Weather by CustomWeather, © 2019

See weather overview